Location: Mexico
(19.4000°N, 99.1500°W)
Time: 10:13:42
(UTC-06:00)

ISS - Pass Details

Date: 17 August 2017
Orbit: 401 x 408 km, 51.6° (Epoch: 19 August)

Event Time Altitude Azimuth Distance (km) Brightness Sun altitude
Rises 20:41:39 0° 292° (WNW) 2,300 1.5 -22.8°
Reaches altitude 10° 20:44:56 10° 256° (WSW) 1,440 -0.4 -23.6°
Maximum altitude 20:45:59 11° 236° (SW) 1,366 -0.8 -23.8°
Enters shadow 20:46:41 11° 223° (SW) 1,397 -0.9 -23.9°
